OPS 4682 DEB, 38369

Orbit data source: Space-Track

OPS 4682 DEB, 38369 is space debris in LEO originally from a launch on Sat, 03 Apr 1965 UTC launched from the Air Force Western Test Range (AFWTR). Debris objects in space refer to the collection of defunct objects orbiting the Earth. Examples of debris include non-operational satellites, rocket bodies, and fragments generated from explosions, collisions, or faulty payload assembly.

Loading next visibility...
Identifier
38369, 1965-027BW
Orbit
LEO
Country
Flag of USUS
Related business
Manufacturer
Unknown
Mission
Spacecraft
Bus & Motor
Unknown
Mass
Unknown
Launch date (UTC)
1965-04-03 (61 years ago)
Launch vehicle
Unknown
Launch site
Air Force Western Test Range (AFWTR)
Object type
Payload
Rocket body
Debris
Shape & HBR
Unknown shape, 0.1 m
Radar Cross Section
Small (<0.1 m²)

Expand to show TLE details & history
Last TLE update: 14 hours ago

TLE from 14 hours ago
0 OPS 4682 DEB
1 38369U 65027BW  26125.63022950  .00000148  00000-0  47654-3 0  9994
2 38369  90.2422   5.3978 0029094 150.5561 209.7207 12.98433046547507
Epoch: 2026-05-05T15:07Z
TLE epoch observation values (Epoch: 2026-05-05T15:07:31.828Z)
Latitude
0.00001°
Longitude
-84.98713°
Altitude
1,290.453 km
Speed
7.202 km/s
True Right ascension
00h 21m 35s
True Declination
0° 00' 00"
Sunlit
Object was in daylight at epoch
Visualization orbit readout
Latitude
Unknown
Longitude
Unknown
Altitude
Unknown
Speed
Unknown
Apparent Right ascension
Unknown
Apparent Declination
Unknown
Sunlit
N/A
Visualization observer readout
Local Sidereal Time
12:33:59
Azimuth
Unknown
Elevation
Unknown
Doppler factor
Unknown
Orbital elements
Apogee altitude
1,287.6 km
Perigee altitude
1,243.124 km
Semi-major axis
7,643.499 km
Eccentricity
0.00291
Inclination
90.2422°
RAAN
5.3978°
Arg. of periapsis
150.5561°
True anomaly
209.55593°
Mean anomaly
209.7207°
Eccentric anomaly
209.63826°
Mean motion
3.24792 °/min
Orbital period
110.84 mins
BSTAR
0.00047654
Loading maneuver chart data...
Computing Atmospheric mass density...
Loading historical data...
Loading historical data...
Loading historical data...
Loading historical data...
Loading historical data...
Loading historical data...
Loading historical data...

Documentation

Showing up to 5 results
|